EDT,Max TemperatureF,Mean TemperatureF,Min TemperatureF,Max Dew PointF,MeanDew PointF,Min DewpointF,Max Humidity, Mean Humidity, Min Humidity, Max Sea Level PressureIn, Mean Sea Level PressureIn, Min Sea Level PressureIn, Max VisibilityMiles, Mean VisibilityMiles, Min VisibilityMiles, Max Wind SpeedMPH, Mean Wind SpeedMPH, Max Gust SpeedMPH,PrecipitationIn, CloudCover, Events, WindDirDegrees
2013-5-1,82,70,57,57,54,50,88,58,32,30.22,30.14,30.03,10,10,10,16,9,22,0.00,0,,167
2013-5-2,80,70,59,55,50,46,82,53,32,30.24,30.19,30.11,10,10,10,18,8,21,0.00,0,,145
2013-5-3,78,68,57,54,45,32,63,45,25,30.14,30.10,30.06,10,10,10,18,8,26,0.00,1,,132
2013-5-4,73,63,53,50,41,32,72,45,22,30.13,30.10,30.07,10,10,10,14,7,23,0.00,0,,120
2013-5-5,73,60,46,46,39,32,81,48,22,30.12,30.09,30.04,10,10,7,14,5,21,0.00,0,,107
2013-5-6,77,60,44,45,40,30,87,50,19,30.09,30.04,29.98,10,10,10,14,4,18,0.00,0,,54
2013-5-7,75,60,44,52,45,37,81,54,34,30.08,30.04,30.00,10,10,7,16,3,21,0.00,1,,43
2013-5-8,78,64,51,50,44,37,88,50,23,30.04,30.00,29.95,10,10,10,10,3,16,0.00,1,,11
2013-5-9,80,65,50,54,46,41,82,52,26,29.98,29.93,29.88,10,10,10,12,2,,0.00,3,,187
2013-5-10,62,52,42,50,45,43,100,95,52,29.91,29.86,29.83,10,7,2,22,13,29,0.00,8,Rain,23
2013-5-11,60,48,37,52,42,34,100,86,59,29.89,29.82,29.68,10,10,4,29,10,38,0.00,6,Rain,269
2013-5-12,46,40,33,36,31,25,93,70,53,30.08,29.93,29.81,10,10,10,29,16,37,0.00,4,,282
2013-5-13,53,42,32,32,28,23,87,61,30,30.16,30.10,30.07,10,10,10,16,8,23,0.00,1,,270
2013-5-14,64,54,44,46,38,32,67,56,45,30.07,29.88,29.70,10,10,10,17,7,22,0.00,5,Rain,139
2013-5-15,78,66,53,57,47,34,94,50,23,29.79,29.68,29.51,10,10,10,21,12,29,0.00,1,Rain,262
2013-5-16,78,64,50,45,43,37,76,49,23,30.07,29.89,29.78,10,10,7,16,7,22,0.00,0,,322
2013-5-17,64,53,42,46,42,37,87,65,45,30.18,30.14,30.07,10,10,4,14,4,17,0.00,3,Rain,62
2013-5-18,78,64,51,50,47,43,94,61,31,30.18,30.12,30.04,10,10,10,15,5,21,0.00,5,Rain,81
2013-5-19,86,68,50,61,52,45,87,57,35,30.06,29.97,29.87,10,10,3,9,2,10,0.00,0,,159
2013-5-20,89,76,64,70,64,57,100,74,38,29.91,29.84,29.74,10,10,2,28,8,50,0.00,1,Rain,177
2013-5-21,80,72,64,68,64,61,100,78,54,29.80,29.75,29.71,10,9,5,16,7,24,0.00,2,,207
2013-5-22,73,68,64,70,65,63,100,95,83,29.72,29.67,29.61,10,8,0,14,5,31,0.00,5,Rain,207
2013-5-23,64,54,44,63,50,43,100,97,87,30.16,29.90,29.65,10,8,3,23,11,29,0.00,8,Rain,9
2013-5-24,55,46,37,43,37,34,87,73,54,30.38,30.30,30.16,10,10,10,14,9,20,0.00,4,,10
2013-5-25,60,48,35,43,37,32,100,66,34,30.42,30.35,30.30,10,10,7,13,2,,0.00,0,,26
2013-5-26,64,50,37,45,37,28,100,58,26,30.36,30.31,30.25,10,10,7,10,2,17,0.00,0,,29
2013-5-27,71,56,42,48,38,32,82,54,25,30.27,30.16,30.03,10,10,10,16,4,17,0.00,2,Rain,142
2013-5-28,73,62,51,70,60,48,100,98,82,30.02,29.88,29.79,10,6,1,14,7,,0.00,7,Rain,142
2013-5-29,78,71,64,70,67,64,100,91,69,29.98,29.90,29.75,10,9,3,15,8,26,0.00,5,Rain,228
2013-5-30,86,75,64,72,67,64,100,77,48,30.02,29.98,29.93,10,10,1,21,8,50,0.00,2,Rain,188
2013-5-31,78,74,69,70,67,64,94,79,61,29.96,29.89,29.84,10,10,10,20,11,30,0.00,2,Rain,199